QPF
0.00 0.00 0.00 0.00 0.00 0.00 0.00 0.00 0.00 0.00 0.00 0.01 0.01 0.02 0.03 0.03 0.04 0.04 0.04 0.04 0.04 0.05 0.05 0.07 0.09 0.12 0.15 0.18 0.21 0.25 0.29 0.33 0.37 0.34 0.28 0.24 0.21 0.16 0.11 0.06 0.03 0.01 0.01
0.00 0.00 0.00 0.00 0.00 0.00 0.00 0.00 0.00 0.00 0.01 0.01 0.01 0.02 0.03 0.04 0.04 0.04 0.03 0.03 0.03 0.03 0.04 0.05 0.06 0.08 0.11 0.14 0.18 0.23 0.27 0.30 0.32 0.31 0.26 0.21 0.16 0.11 0.07 0.04 0.02 0.01 0.01
0.00 0.00 0.00 0.00 0.00 0.00 0.00 0.00 0.00 0.00 0.01 0.01 0.02 0.03 0.03 0.03 0.03 0.03 0.03 0.03 0.03 0.03 0.03 0.04 0.05 0.07 0.09 0.11 0.14 0.18 0.20 0.21 0.21 0.20 0.16 0.11 0.08 0.05 0.04 0.02 0.01 0.01 0.00
0.00 0.00 0.00 0.00 0.00 0.00 0.00 0.00 0.00 0.01 0.01 0.01 0.01 0.01 0.01 0.02 0.02 0.02 0.02 0.02 0.03 0.04 0.04 0.06 0.07 0.09 0.12 0.14 0.15 0.16 0.16 0.15 0.13 0.11 0.09 0.06 0.04 0.02 0.02 0.01 0.00 0.00 0.00
0.00 0.00 0.00 0.00 0.00 0.00 0.00 0.00 0.01 0.01 0.01 0.01 0.01 0.01 0.01 0.01 0.01 0.01 0.02 0.02 0.03 0.04 0.05 0.07 0.10 0.14 0.16 0.15 0.12 0.10 0.08 0.06 0.05 0.04 0.03 0.03 0.02 0.01 0.01 0.00 0.00 0.00 0.00
0.00 0.00 0.00 0.00 0.00 0.00 0.01 0.01 0.01 0.01 0.01 0.01 0.00 0.00 0.00 0.01 0.02 0.02 0.03 0.03 0.05 0.06 0.07 0.08 0.11 0.13 0.12 0.11 0.09 0.07 0.05 0.04 0.03 0.02 0.02 0.01 0.00 0.00 0.00 0.00 0.00 0.00 0.00
0.00 0.00 0.00 0.00 0.00 0.00 0.00 0.01 0.01 0.01 0.01 0.01 0.00 0.00 0.01 0.01 0.03 0.04 0.06 0.07 0.08 0.09 0.09 0.09 0.09 0.09 0.08 0.06 0.06 0.05 0.03 0.02 0.01 0.01 0.00 0.00 0.00 0.00 0.00 0.00 0.00 0.00 0.00
0.00 0.00 0.00 0.00 0.00 0.00 0.00 0.00 0.00 0.00 0.01 0.01 0.01 0.01 0.01 0.02 0.03 0.04 0.05 0.06 0.08 0.10 0.09 0.08 0.06 0.05 0.04 0.03 0.02 0.01 0.01 0.00 0.00 0.00 0.00 0.00 0.00 0.00 0.00 0.00 0.00 0.00 0.00
0.00 0.00 0.00 0.00 0.00 0.00 0.00 0.00 0.00 0.00 0.01 0.01 0.01 0.02 0.03 0.04 0.05 0.05 0.06 0.06 0.06 0.06 0.05 0.04 0.03 0.02 0.01 0.00 0.00 0.00 0.00 0.00 0.00 0.00 0.00 0.00 0.00 0.00 0.00 0.00 0.00 0.00 0.00
0.00 0.00 0.00 0.00 0.00 0.00 0.00 0.00 0.00 0.01 0.01 0.01 0.02 0.03 0.04 0.05 0.05 0.05 0.04 0.03 0.03 0.02 0.01 0.00 0.00 0.00 0.00 0.00 0.00 0.00 0.00 0.00 0.00 0.00 0.00 0.00 0.00 0.00 0.00 0.00 0.00 0.00 0.00
0.00 0.00 0.00 0.00 0.00 0.00 0.00 0.00 0.00 0.00 0.01 0.01 0.02 0.03 0.03 0.03 0.03 0.02 0.02 0.01 0.00 0.00 0.00 0.00 0.00 0.00 0.00 0.00 0.00 0.00 0.00 0.00 0.00 0.00 0.00 0.00 0.00 0.00 0.00 0.00 0.00 0.00 0.00
0.00 0.00 0.00 0.00 0.00 0.00 0.00 0.00 0.00 0.00 0.00 0.01 0.01 0.01 0.01 0.01 0.00 0.00 0.00 0.00 0.00 0.00 0.00 0.00 0.00 0.00 0.00 0.00 0.00 0.00 0.00 0.00 0.00 0.00 0.00 0.00 0.00 0.00 0.00 0.00 0.00 0.00 0.00
0.00 0.00 0.00 0.00 0.00 0.00 0.00 0.00 0.00 0.00 0.00 0.00 0.00 0.00 0.00 0.00 0.00 0.00 0.00 0.00 0.00 0.00 0.00 0.00 0.00 0.00 0.00 0.00 0.00 0.00 0.00 0.00 0.00 0.00 0.00 0.00 0.00 0.00 0.00 0.00 0.00 0.00 0.00
0.00 0.00 0.00 0.00 0.00 0.00 0.00 0.00 0.00 0.00 0.00 0.00 0.00 0.00 0.00 0.00 0.00 0.00 0.00 0.00 0.00 0.00 0.00 0.00 0.00 0.00 0.00 0.00 0.00 0.00 0.00 0.00 0.00 0.00 0.00 0.00 0.00 0.00 0.00 0.00 0.00 0.00 0.00
0.00 0.00 0.00 0.00 0.00 0.00 0.00 0.00 0.00 0.00 0.00 0.00 0.00 0.00 0.00 0.00 0.00 0.00 0.00 0.00 0.00 0.00 0.00 0.00 0.00 0.00 0.00 0.00 0.00 0.00 0.00 0.00 0.00 0.00 0.00 0.00 0.00 0.00 0.00 0.00 0.00 0.00 0.00
0.00 0.00 0.00 0.00 0.00 0.00 0.00 0.00 0.00 0.00 0.00 0.00 0.00 0.00 0.00 0.00 0.00 0.00 0.00 0.00 0.00 0.00 0.00 0.00 0.00 0.00 0.00 0.00 0.00 0.00 0.00 0.00 0.00 0.00 0.00 0.00 0.00 0.00 0.00 0.00 0.00 0.00 0.00
0.00 0.00 0.00 0.00 0.00 0.00 0.00 0.00 0.00 0.00 0.00 0.00 0.00 0.00 0.00 0.00 0.00 0.00 0.00 0.00 0.00 0.00 0.00 0.00 0.00 0.00 0.00 0.00 0.00 0.00 0.00 0.00 0.00 0.00 0.00 0.00 0.00 0.00 0.01 0.01 0.00 0.00 0.01
0.00 0.00 0.00 0.00 0.00 0.00 0.00 0.00 0.00 0.00 0.00 0.00 0.00 0.00 0.00 0.00 0.00 0.00 0.00 0.00 0.00 0.00 0.00 0.00 0.00 0.00 0.00 0.00 0.00 0.00 0.00 0.00 0.00 0.00 0.00 0.00 0.00 0.01 0.01 0.01 0.01 0.01 0.01
0.00 0.00 0.00 0.00 0.00 0.00 0.00 0.00 0.00 0.00 0.00 0.00 0.00 0.00 0.00 0.00 0.00 0.00 0.00 0.00 0.00 0.00 0.00 0.00 0.00 0.00 0.00 0.00 0.00 0.00 0.00 0.00 0.00 0.00 0.00 0.00 0.01 0.01 0.01 0.01 0.01 0.01 0.01
0.00 0.00 0.00 0.00 0.00 0.00 0.00 0.00 0.00 0.00 0.00 0.00 0.00 0.00 0.00 0.00 0.00 0.00 0.00 0.00 0.00 0.00 0.00 0.00 0.00 0.00 0.00 0.00 0.00 0.00 0.00 0.00 0.00 0.00 0.00 0.00 0.01 0.01 0.01 0.01 0.01 0.01 0.01
0.00 0.00 0.00 0.00 0.00 0.00 0.00 0.00 0.00 0.00 0.00 0.00 0.00 0.00 0.00 0.00 0.00 0.00 0.00 0.00 0.00 0.00 0.00 0.00 0.00 0.00 0.00 0.00 0.00 0.00 0.00 0.00 0.00 0.00 0.00 0.01 0.01 0.01 0.01 0.01 0.01 0.01 0.01
0.00 0.00 0.00 0.00 0.00 0.00 0.00 0.00 0.00 0.00 0.00 0.00 0.00 0.00 0.00 0.00 0.00 0.00 0.00 0.00 0.00 0.00 0.00 0.00 0.00 0.00 0.00 0.00 0.00 0.00 0.00 0.00 0.00 0.01 0.01 0.01 0.01 0.01 0.01 0.01 0.01 0.01 0.01
0.00 0.00 0.00 0.00 0.00 0.00 0.00 0.00 0.00 0.00 0.00 0.00 0.00 0.00 0.00 0.00 0.00 0.00 0.00 0.00 0.00 0.00 0.00 0.00 0.00 0.00 0.00 0.00 0.00 0.00 0.01 0.01 0.01 0.02 0.02 0.02 0.01 0.01 0.02 0.02 0.01 0.01 0.02
0.00 0.00 0.00 0.00 0.00 0.00 0.00 0.00 0.00 0.00 0.00 0.00 0.00 0.00 0.00 0.00 0.00 0.00 0.00 0.00 0.00 0.00 0.00 0.00 0.00 0.00 0.00 0.00 0.00 0.00 0.01 0.01 0.03 0.03 0.02 0.03 0.02 0.02 0.02 0.02 0.02 0.02 0.03
0.00 0.00 0.00 0.00 0.00 0.00 0.00 0.00 0.00 0.00 0.00 0.00 0.00 0.00 0.00 0.00 0.00 0.00 0.00 0.00 0.00 0.00 0.00 0.00 0.00 0.00 0.00 0.00 0.00 0.00 0.01 0.02 0.04 0.06 0.07 0.06 0.04 0.03 0.03 0.04 0.04 0.03 0.03
0.00 0.00 0.00 0.00 0.00 0.00 0.00 0.00 0.00 0.00 0.00 0.00 0.00 0.00 0.00 0.00 0.00 0.00 0.00 0.00 0.00 0.00 0.00 0.00 0.00 0.00 0.00 0.00 0.00 0.00 0.01 0.02 0.03 0.04 0.08 0.09 0.07 0.05 0.05 0.06 0.06 0.05 0.04
MSLP
1015.75 1015.42 1015.05 1014.66 1014.26 1013.87 1013.51 1013.18 1012.91 1012.68 1012.51 1012.41 1012.37 1012.40 1012.50 1012.66 1012.88 1013.16 1013.50 1013.88 1014.30 1014.74 1015.19 1015.65 1016.09 1016.51 1016.93 1017.34 1017.74 1018.16 1018.60 1019.06 1019.54 1020.04 1020.53 1021.01 1021.45 1021.83 1022.13 1022.35 1022.48 1022.51 1022.47
1016.33 1015.99 1015.61 1015.22 1014.83 1014.46 1014.11 1013.80 1013.54 1013.31 1013.14 1013.03 1012.97 1012.98 1013.06 1013.20 1013.42 1013.69 1014.03 1014.40 1014.81 1015.24 1015.66 1016.08 1016.48 1016.86 1017.22 1017.58 1017.94 1018.32 1018.72 1019.15 1019.61 1020.08 1020.55 1020.99 1021.40 1021.74 1022.00 1022.18 1022.26 1022.25 1022.16
1016.93 1016.59 1016.22 1015.85 1015.48 1015.14 1014.82 1014.54 1014.30 1014.10 1013.93 1013.82 1013.76 1013.76 1013.82 1013.95 1014.15 1014.42 1014.74 1015.10 1015.48 1015.87 1016.26 1016.63 1016.97 1017.29 1017.59 1017.89 1018.20 1018.52 1018.88 1019.26 1019.67 1020.10 1020.52 1020.92 1021.28 1021.57 1021.79 1021.93 1021.97 1021.93 1021.81
1017.50 1017.19 1016.85 1016.51 1016.18 1015.88 1015.61 1015.37 1015.16 1014.99 1014.85 1014.75 1014.69 1014.69 1014.75 1014.87 1015.05 1015.29 1015.59 1015.91 1016.26 1016.61 1016.94 1017.25 1017.53 1017.78 1018.02 1018.25 1018.49 1018.75 1019.05 1019.37 1019.72 1020.08 1020.45 1020.79 1021.10 1021.34 1021.53 1021.63 1021.65 1021.59 1021.45
1018.03 1017.76 1017.47 1017.19 1016.92 1016.67 1016.45 1016.26 1016.09 1015.95 1015.84 1015.76 1015.72 1015.72 1015.77 1015.88 1016.05 1016.26 1016.52 1016.81 1017.10 1017.39 1017.66 1017.90 1018.11 1018.30 1018.47 1018.63 1018.81 1019.00 1019.22 1019.47 1019.75 1020.05 1020.34 1020.62 1020.87 1021.08 1021.22 1021.31 1021.32 1021.26 1021.13
1018.49 1018.29 1018.07 1017.85 1017.65 1017.47 1017.31 1017.17 1017.05 1016.95 1016.86 1016.80 1016.77 1016.78 1016.83 1016.93 1017.08 1017.26 1017.48 1017.71 1017.95 1018.18 1018.38 1018.55 1018.69 1018.81 1018.91 1019.01 1019.12 1019.24 1019.40 1019.58 1019.78 1020.00 1020.22 1020.44 1020.63 1020.80 1020.92 1021.00 1021.01 1020.97 1020.85
1018.87 1018.74 1018.61 1018.48 1018.36 1018.25 1018.15 1018.06 1017.98 1017.92 1017.86 1017.82 1017.80 1017.82 1017.86 1017.95 1018.07 1018.23 1018.40 1018.58 1018.75 1018.91 1019.05 1019.15 1019.23 1019.28 1019.32 1019.36 1019.41 1019.47 1019.56 1019.67 1019.80 1019.95 1020.10 1020.26 1020.41 1020.54 1020.64 1020.71 1020.74 1020.72 1020.63
1019.15 1019.12 1019.08 1019.04 1019.00 1018.97 1018.93 1018.89 1018.85 1018.81 1018.78 1018.75 1018.75 1018.76 1018.80 1018.87 1018.97 1019.09 1019.21 1019.34 1019.46 1019.55 1019.62 1019.66 1019.68 1019.68 1019.67 1019.66 1019.66 1019.67 1019.71 1019.76 1019.83 1019.91 1020.01 1020.11 1020.21 1020.31 1020.40 1020.47 1020.51 1020.51 1020.46
1019.35 1019.41 1019.47 1019.52 1019.56 1019.59 1019.61 1019.62 1019.61 1019.60 1019.58 1019.56 1019.56 1019.57 1019.60 1019.65 1019.72 1019.80 1019.88 1019.96 1020.02 1020.06 1020.07 1020.06 1020.03 1019.99 1019.95 1019.90 1019.86 1019.84 1019.83 1019.84 1019.86 1019.89 1019.94 1019.99 1020.06 1020.13 1020.20 1020.27 1020.32 1020.33 1020.29
1019.47 1019.62 1019.76 1019.89 1020.01 1020.10 1020.17 1020.22 1020.24 1020.24 1020.23 1020.22 1020.21 1020.21 1020.23 1020.26 1020.30 1020.35 1020.39 1020.42 1020.43 1020.42 1020.39 1020.35 1020.28 1020.22 1020.15 1020.08 1020.02 1019.98 1019.94 1019.92 1019.90 1019.90 1019.90 1019.92 1019.95 1019.99 1020.04 1020.09 1020.12 1020.13 1020.09
1019.52 1019.75 1019.96 1020.17 1020.35 1020.49 1020.60 1020.67 1020.71 1020.72 1020.72 1020.70 1020.69 1020.69 1020.69 1020.70 1020.72 1020.73 1020.74 1020.73 1020.71 1020.66 1020.60 1020.53 1020.45 1020.36 1020.28 1020.21 1020.15 1020.09 1020.04 1020.00 1019.96 1019.92 1019.90 1019.88 1019.87 1019.87 1019.89 1019.91 1019.91 1019.90 1019.83
1019.53 1019.81 1020.09 1020.34 1020.56 1020.75 1020.88 1020.98 1021.03 1021.06 1021.06 1021.04 1021.03 1021.01 1021.00 1020.99 1020.99 1020.98 1020.96 1020.92 1020.87 1020.81 1020.73 1020.64 1020.55 1020.46 1020.38 1020.31 1020.25 1020.19 1020.14 1020.08 1020.03 1019.97 1019.91 1019.86 1019.81 1019.77 1019.74 1019.71 1019.66 1019.60 1019.49
1019.50 1019.82 1020.13 1020.42 1020.67 1020.88 1021.04 1021.16 1021.22 1021.26 1021.27 1021.25 1021.24 1021.22 1021.20 1021.18 1021.15 1021.12 1021.09 1021.03 1020.97 1020.89 1020.80 1020.71 1020.63 1020.54 1020.47 1020.41 1020.35 1020.29 1020.23 1020.17 1020.10 1020.02 1019.94 1019.85 1019.76 1019.66 1019.57 1019.48 1019.37 1019.23 1019.06
1019.45 1019.79 1020.12 1020.43 1020.70 1020.92 1021.10 1021.23 1021.31 1021.36 1021.38 1021.38 1021.36 1021.34 1021.31 1021.29 1021.25 1021.21 1021.16 1021.10 1021.03 1020.95 1020.87 1020.78 1020.70 1020.63 1020.56 1020.50 1020.45 1020.39 1020.33 1020.26 1020.17 1020.07 1019.95 1019.82 1019.68 1019.54 1019.38 1019.21 1019.03 1018.81 1018.56
1019.37 1019.72 1020.06 1020.37 1020.65 1020.89 1021.08 1021.22 1021.33 1021.39 1021.43 1021.44 1021.43 1021.41 1021.39 1021.35 1021.32 1021.27 1021.22 1021.16 1021.09 1021.02 1020.94 1020.87 1020.79 1020.73 1020.66 1020.61 1020.55 1020.48 1020.41 1020.32 1020.21 1020.08 1019.93 1019.76 1019.58 1019.37 1019.15 1018.91 1018.65 1018.35 1018.02
1019.27 1019.62 1019.96 1020.27 1020.56 1020.81 1021.01 1021.18 1021.30 1021.39 1021.44 1021.46 1021.47 1021.46 1021.43 1021.40 1021.36 1021.32 1021.27 1021.22 1021.15 1021.09 1021.02 1020.96 1020.89 1020.83 1020.76 1020.70 1020.62 1020.54 1020.44 1020.33 1020.19 1020.03 1019.85 1019.64 1019.41 1019.16 1018.88 1018.57 1018.23 1017.86 1017.45
1019.14 1019.49 1019.83 1020.15 1020.44 1020.70 1020.92 1021.11 1021.25 1021.36 1021.43 1021.47 1021.49 1021.48 1021.46 1021.43 1021.39 1021.35 1021.30 1021.25 1021.20 1021.15 1021.10 1021.04 1020.98 1020.91 1020.84 1020.75 1020.66 1020.55 1020.42 1020.27 1020.10 1019.90 1019.68 1019.44 1019.17 1018.87 1018.54 1018.18 1017.78 1017.34 1016.86
1018.98 1019.34 1019.69 1020.01 1020.31 1020.58 1020.82 1021.03 1021.19 1021.32 1021.41 1021.46 1021.48 1021.48 1021.46 1021.42 1021.39 1021.34 1021.30 1021.26 1021.22 1021.18 1021.13 1021.08 1021.02 1020.94 1020.85 1020.74 1020.61 1020.46 1020.29 1020.10 1019.89 1019.66 1019.40 1019.12 1018.82 1018.48 1018.12 1017.71 1017.26 1016.77 1016.23
1018.81 1019.17 1019.53 1019.86 1020.17 1020.46 1020.72 1020.95 1021.13 1021.27 1021.37 1021.42 1021.44 1021.44 1021.41 1021.37 1021.33 1021.29 1021.25 1021.21 1021.18 1021.14 1021.10 1021.05 1020.98 1020.89 1020.77 1020.63 1020.46 1020.27 1020.05 1019.82 1019.56 1019.28 1018.99 1018.68 1018.34 1017.98 1017.58 1017.14 1016.66 1016.12 1015.53
1018.61 1018.99 1019.36 1019.71 1020.04 1020.34 1020.62 1020.86 1021.05 1021.20 1021.30 1021.35 1021.37 1021.35 1021.32 1021.27 1021.22 1021.17 1021.13 1021.09 1021.06 1021.03 1020.98 1020.92 1020.84 1020.73 1020.58 1020.40 1020.19 1019.95 1019.68 1019.39 1019.08 1018.77 1018.43 1018.09 1017.72 1017.33 1016.91 1016.44 1015.92 1015.35 1014.72
1018.41 1018.80 1019.18 1019.55 1019.90 1020.22 1020.51 1020.75 1020.95 1021.10 1021.20 1021.24 1021.25 1021.22 1021.17 1021.11 1021.05 1021.00 1020.95 1020.91 1020.87 1020.83 1020.78 1020.70 1020.59 1020.45 1020.27 1020.05 1019.78 1019.49 1019.16 1018.82 1018.47 1018.10 1017.73 1017.34 1016.95 1016.53 1016.07 1015.58 1015.03 1014.43 1013.77
1018.20 1018.60 1019.00 1019.38 1019.74 1020.08 1020.37 1020.62 1020.82 1020.96 1021.05 1021.09 1021.08 1021.04 1020.98 1020.91 1020.84 1020.77 1020.72 1020.66 1020.61 1020.55 1020.48 1020.38 1020.24 1020.06 1019.83 1019.56 1019.24 1018.89 1018.51 1018.11 1017.70 1017.29 1016.87 1016.45 1016.01 1015.56 1015.07 1014.55 1013.97 1013.34 1012.64
1017.98 1018.40 1018.80 1019.20 1019.57 1019.91 1020.20 1020.45 1020.64 1020.78 1020.86 1020.89 1020.88 1020.83 1020.76 1020.68 1020.60 1020.53 1020.45 1020.38 1020.30 1020.22 1020.11 1019.96 1019.78 1019.55 1019.27 1018.94 1018.57 1018.16 1017.73 1017.27 1016.81 1016.35 1015.88 1015.41 1014.93 1014.43 1013.91 1013.35 1012.74 1012.07 1011.35
1017.77 1018.19 1018.60 1018.99 1019.36 1019.69 1019.99 1020.23 1020.41 1020.54 1020.62 1020.65 1020.64 1020.59 1020.52 1020.44 1020.36 1020.27 1020.17 1020.08 1019.97 1019.83 1019.67 1019.48 1019.24 1018.95 1018.61 1018.22 1017.79 1017.32 1016.83 1016.33 1015.81 1015.30 1014.78 1014.26 1013.73 1013.19 1012.62 1012.01 1011.36 1010.66 1009.90
1017.54 1017.96 1018.36 1018.75 1019.11 1019.43 1019.71 1019.95 1020.13 1020.26 1020.34 1020.38 1020.37 1020.34 1020.28 1020.20 1020.11 1020.01 1019.89 1019.76 1019.60 1019.41 1019.19 1018.93 1018.61 1018.26 1017.85 1017.40 1016.91 1016.39 1015.85 1015.30 1014.73 1014.17 1013.60 1013.03 1012.45 1011.85 1011.23 1010.57 1009.87 1009.13 1008.34
1017.31 1017.71 1018.10 1018.47 1018.82 1019.12 1019.39 1019.61 1019.79 1019.92 1020.02 1020.07 1020.09 1020.07 1020.03 1019.96 1019.86 1019.74 1019.60 1019.42 1019.20 1018.95 1018.65 1018.31 1017.92 1017.49 1017.01 1016.50 1015.95 1015.38 1014.80 1014.20 1013.60 1012.99 1012.38 1011.75 1011.12 1010.46 1009.78 1009.07 1008.31 1007.52 1006.69
Thickness
5589 5591 5592 5593 5594 5595 5594 5593 5591 5589 5586 5581 5575 5569 5561 5552 5543 5535 5527 5522 5518 5515 5514 5513 5512 5512 5513 5514 5515 5516 5516 5515 5508 5500 5496 5493 5491 5487 5484 5481 5478 5477 5474
5577 5579 5580 5580 5581 5581 5580 5579 5577 5574 5570 5565 5558 5550 5541 5532 5523 5514 5507 5502 5499 5496 5494 5493 5492 5494 5495 5497 5498 5499 5500 5499 5498 5491 5484 5480 5476 5473 5471 5468 5466 5463 5461
5567 5567 5567 5567 5567 5567 5566 5564 5563 5559 5554 5548 5540 5531 5522 5513 5505 5497 5490 5485 5481 5478 5477 5477 5477 5478 5479 5481 5482 5483 5483 5483 5483 5481 5474 5469 5465 5462 5458 5455 5452 5449 5446
5556 5555 5554 5554 5553 5552 5552 5550 5547 5543 5538 5531 5523 5515 5506 5497 5488 5481 5475 5469 5466 5463 5462 5462 5462 5464 5465 5467 5468 5468 5469 5469 5468 5467 5463 5458 5454 5451 5447 5442 5438 5434 5431
5544 5543 5542 5541 5541 5540 5538 5536 5532 5528 5522 5516 5509 5501 5492 5484 5476 5469 5463 5457 5453 5451 5449 5448 5449 5451 5453 5454 5456 5456 5456 5456 5455 5452 5450 5447 5443 5439 5434 5429 5424 5419 5415
5534 5532 5531 5530 5529 5528 5526 5523 5519 5514 5508 5502 5496 5488 5481 5473 5466 5460 5453 5447 5443 5440 5438 5438 5439 5440 5443 5445 5446 5445 5445 5445 5443 5441 5438 5435 5431 5427 5421 5416 5409 5403 5397
5524 5522 5521 5520 5518 5516 5514 5511 5506 5501 5496 5490 5484 5478 5471 5464 5458 5452 5446 5440 5436 5433 5431 5430 5430 5431 5432 5433 5434 5435 5435 5435 5434 5431 5427 5422 5418 5414 5408 5402 5395 5387 5382
5515 5513 5512 5510 5508 5505 5503 5499 5495 5490 5485 5479 5473 5467 5462 5456 5450 5445 5440 5434 5430 5427 5425 5424 5424 5424 5425 5426 5426 5426 5425 5425 5424 5421 5416 5411 5407 5402 5396 5388 5380 5373 5367
5507 5505 5503 5501 5498 5495 5491 5487 5483 5479 5473 5468 5462 5457 5452 5447 5443 5439 5434 5429 5426 5423 5422 5421 5420 5420 5420 5421 5420 5419 5417 5415 5414 5410 5405 5400 5395 5389 5383 5374 5364 5356 5349
5499 5497 5494 5492 5489 5485 5481 5477 5473 5470 5464 5459 5453 5448 5444 5441 5438 5435 5431 5427 5423 5421 5419 5418 5418 5417 5416 5415 5412 5410 5407 5404 5400 5396 5392 5387 5382 5375 5369 5361 5351 5340 5333
5493 5490 5487 5484 5481 5478 5474 5470 5466 5461 5457 5452 5448 5443 5440 5436 5434 5431 5428 5424 5422 5420 5417 5415 5413 5412 5410 5407 5405 5400 5397 5394 5388 5383 5378 5373 5367 5361 5354 5347 5340 5331 5323
5488 5485 5481 5478 5476 5472 5468 5464 5460 5456 5451 5447 5443 5439 5435 5432 5430 5427 5425 5422 5419 5416 5413 5409 5407 5405 5402 5399 5395 5392 5388 5383 5376 5370 5365 5359 5352 5345 5340 5334 5328 5322 5317
5483 5480 5477 5474 5470 5467 5463 5460 5456 5452 5447 5443 5439 5434 5431 5428 5426 5424 5420 5418 5415 5411 5407 5404 5401 5398 5394 5389 5386 5382 5377 5370 5364 5357 5351 5344 5338 5332 5327 5323 5318 5314 5310
5479 5476 5473 5469 5465 5461 5458 5455 5450 5446 5442 5438 5434 5430 5427 5424 5420 5417 5414 5411 5408 5404 5400 5397 5394 5390 5386 5382 5377 5372 5366 5359 5352 5345 5338 5332 5326 5320 5315 5312 5308 5305 5303
5474 5471 5467 5464 5460 5455 5450 5446 5443 5438 5436 5432 5428 5425 5421 5417 5415 5413 5408 5404 5400 5396 5393 5388 5384 5380 5376 5371 5366 5360 5354 5348 5341 5333 5326 5320 5315 5310 5305 5302 5299 5296 5294
5469 5465 5461 5457 5454 5449 5444 5439 5438 5434 5431 5428 5424 5420 5417 5414 5410 5406 5402 5398 5394 5390 5385 5379 5374 5370 5365 5360 5354 5348 5342 5335 5328 5321 5314 5307 5303 5299 5296 5293 5290 5288 5287
5464 5460 5456 5452 5448 5444 5440 5435 5430 5427 5424 5421 5418 5415 5411 5407 5403 5399 5395 5390 5386 5382 5375 5369 5364 5359 5354 5349 5342 5336 5329 5323 5316 5309 5303 5298 5294 5290 5287 5284 5281 5280 5279
5459 5456 5451 5447 5443 5439 5435 5431 5427 5423 5418 5414 5411 5408 5405 5401 5397 5392 5388 5382 5377 5373 5367 5361 5355 5350 5345 5338 5332 5325 5319 5312 5305 5298 5293 5288 5284 5281 5278 5276 5274 5272 5272
5453 5448 5445 5441 5437 5433 5429 5425 5421 5417 5413 5409 5406 5402 5399 5395 5391 5386 5381 5374 5368 5363 5359 5353 5347 5341 5335 5329 5322 5315 5308 5301 5294 5288 5283 5279 5275 5272 5270 5269 5267 5267 5266
5447 5445 5440 5435 5430 5427 5423 5419 5415 5411 5407 5403 5399 5396 5392 5387 5382 5378 5374 5367 5362 5356 5351 5345 5339 5333 5327 5320 5313 5305 5298 5291 5285 5280 5275 5272 5268 5265 5263 5262 5261 5261 5261
5441 5437 5435 5429 5424 5420 5416 5412 5408 5404 5400 5397 5393 5390 5387 5380 5375 5371 5366 5361 5355 5349 5343 5338 5332 5326 5319 5312 5304 5297 5289 5283 5278 5273 5269 5265 5261 5259 5257 5256 5256 5256 5256
5435 5430 5426 5422 5418 5414 5410 5406 5402 5399 5395 5391 5387 5383 5380 5374 5369 5364 5359 5354 5349 5343 5337 5331 5325 5319 5312 5304 5297 5289 5282 5276 5271 5266 5262 5259 5256 5254 5253 5252 5252 5252 5252
5429 5424 5420 5416 5412 5409 5405 5400 5396 5392 5388 5385 5381 5377 5373 5368 5363 5358 5353 5348 5343 5337 5332 5326 5319 5313 5306 5299 5291 5283 5277 5272 5267 5261 5257 5254 5251 5249 5248 5248 5248 5249 5251
5423 5418 5414 5410 5406 5402 5398 5394 5390 5387 5382 5379 5375 5371 5366 5362 5357 5352 5347 5341 5336 5332 5326 5320 5314 5308 5301 5294 5287 5280 5274 5269 5263 5258 5254 5251 5249 5247 5247 5247 5249 5251 5253
5415 5412 5408 5404 5400 5396 5392 5388 5384 5380 5377 5373 5369 5365 5360 5355 5350 5346 5341 5336 5331 5326 5321 5315 5309 5302 5296 5290 5283 5278 5272 5267 5262 5258 5256 5253 5252 5251 5250 5251 5254 5256 5258
5409 5406 5402 5398 5394 5390 5386 5382 5379 5375 5370 5367 5362 5358 5353 5349 5344 5340 5335 5330 5325 5321 5316 5310 5305 5298 5292 5286 5281 5276 5271 5267 5263 5260 5257 5257 5256 5256 5256 5258 5260 5262 5264